| time (UTC) | temp F | wind direction | speed MPH | gust MPH | rain 1hr in | rain 24hr in | rain mn in | humidity % | barometer mb |
| 20260902212513 | 52 | 315 | 2.0 | 9.0 | 0.00 | 0.00 | 0.00 | 79 | 1010.5 |
| 20260902212011 | 51 | 251 | 2.0 | 9.0 | 0.00 | 0.00 | 0.00 | 78 | 1010.5 |
| 20260902211511 | 51 | 304 | 0.0 | 7.0 | 0.00 | 0.00 | 0.00 | 78 | 1010.4 |
| 20260902211009 | 51 | 282 | 0.0 | 5.0 | 0.00 | 0.00 | 0.00 | 78 | 1010.2 |
| 20260902210509 | 51 | 316 | 2.0 | 4.0 | 0.00 | 0.00 | 0.00 | 77 | 1010.0 |
| 20260902210009 | 51 | 340 | 1.0 | 4.0 | 0.00 | 0.00 | 0.00 | 77 | 1009.9 |
| 20260902205508 | 51 | 305 | 1.0 | 4.0 | 0.00 | 0.00 | 0.00 | 76 | 1009.9 |
| 20260902205007 | 51 | 348 | 1.0 | 3.0 | 0.00 | 0.00 | 0.00 | 76 | 1009.7 |
| 20260902204507 | 51 | 323 | 0.0 | 3.0 | 0.00 | 0.00 | 0.00 | 76 | 1009.6 |
| 20260902204006 | 51 | 317 | 0.0 | 3.0 | 0.00 | 0.00 | 0.00 | 76 | 1009.5 |
| 20260902203010 | 51 | 346 | 3.0 | 8.0 | 0.00 | 0.00 | 0.00 | 75 | 1009.4 |
| 20260902202510 | 51 | 5 | 0.0 | 3.0 | 0.00 | 0.00 | 0.00 | 75 | 1009.6 |
| 20260902202010 | 51 | 5 | 0.0 | 4.0 | 0.00 | 0.00 | 0.00 | 75 | 1009.5 |
| 20260902201512 | 51 | 5 | 2.0 | 5.0 | 0.00 | 0.00 | 0.00 | 75 | 1009.6 |
| 20260902201011 | 52 | 333 | 1.0 | 8.0 | 0.00 | 0.00 | 0.00 | 75 | 1009.8 |
| 20260902200509 | 52 | 325 | 3.0 | 8.0 | 0.00 | 0.00 | 0.00 | 75 | 1009.7 |
| 20260902200010 | 51 | 321 | 1.0 | 8.0 | 0.00 | 0.00 | 0.00 | 75 | 1009.7 |
| 20260902195507 | 51 | 302 | 2.0 | 10.0 | 0.00 | 0.00 | 0.00 | 75 | 1009.7 |
| 20260902195009 | 51 | 293 | 3.0 | 10.0 | 0.00 | 0.00 | 0.00 | 75 | 1009.7 |
| 20260902194505 | 51 | 304 | 5.0 | 10.0 | 0.00 | 0.00 | 0.00 | 75 | 1009.6 |
| 20260902194004 | 51 | 295 | 2.0 | 8.0 | 0.00 | 0.00 | 0.00 | 75 | 1009.7 |
| 20260902193002 | 51 | 331 | 3.0 | 10.0 | 0.00 | 0.00 | 0.00 | 75 | 1009.6 |
| 20260902192501 | 51 | 294 | 3.0 | 9.0 | 0.00 | 0.00 | 0.00 | 75 | 1009.6 |
| 20260902192001 | 50 | 292 | 2.0 | 9.0 | 0.00 | 0.00 | 0.00 | 75 | 1009.6 |
| 20260902191501 | 50 | 332 | 3.0 | 9.0 | 0.00 | 0.00 | 0.00 | 74 | 1009.7 |
| 20260902191000 | 50 | 333 | 3.0 | 5.0 | 0.00 | 0.00 | 0.00 | 74 | 1009.6 |
| 20260902190604 | 50 | 339 | 0.0 | 5.0 | 0.00 | 0.00 | 0.00 | 73 | 1009.4 |
| 20260902190126 | 50 | 340 | 2.0 | 5.0 | 0.00 | 0.00 | 0.00 | 73 | 1009.4 |
| 20260902185600 | 50 | 303 | 1.0 | 5.0 | 0.00 | 0.00 | 0.00 | 73 | 1009.3 |
| 20260902185059 | 50 | 5 | 2.0 | 5.0 | 0.00 | 0.00 | 0.00 | 73 | 1009.3 |
| 20260902184608 | 50 | 306 | 1.0 | 3.0 | 0.00 | 0.00 | 0.00 | 72 | 1009.5 |
| 20260902184059 | 50 | 355 | 0.0 | 5.0 | 0.00 | 0.00 | 0.00 | 73 | 1009.4 |
| 20260902183659 | 50 | 303 | 0.0 | 4.0 | 0.00 | 0.00 | 0.00 | 72 | 1009.2 |
| 20260902183001 | 50 | 285 | 0.0 | 4.0 | 0.00 | 0.00 | 0.00 | 72 | 1009.2 |
| 20260902182600 | 51 | 254 | 0.0 | 4.0 | 0.00 | 0.00 | 0.00 | 72 | 1009.4 |
| 20260902182103 | 51 | 355 | 0.0 | 4.0 | 0.00 | 0.00 | 0.00 | 72 | 1009.3 |
| 20260902181620 | 51 | 323 | 1.0 | 11.0 | 0.00 | 0.00 | 0.00 | 72 | 1009.3 |
| 20260902181100 | 50 | 313 | 1.0 | 11.0 | 0.00 | 0.00 | 0.00 | 72 | 1009.2 |
| 20260902180559 | 50 | 332 | 0.0 | 6.0 | 0.00 | 0.00 | 0.00 | 72 | 1009.2 |
| 20260902180059 | 50 | 290 | 1.0 | 3.0 | 0.00 | 0.00 | 0.00 | 72 | 1009.2 |
| 20260902175559 | 51 | 304 | 0.0 | 3.0 | 0.00 | 0.00 | 0.00 | 72 | 1009.2 |
| 20260902175059 | 51 | 333 | 0.0 | 3.0 | 0.00 | 0.00 | 0.00 | 72 | 1009.2 |
| 20260902174558 | 51 | 325 | 1.0 | 4.0 | 0.00 | 0.00 | 0.00 | 72 | 1009.2 |
| 20260902174058 | 51 | 329 | 0.0 | 5.0 | 0.00 | 0.00 | 0.00 | 72 | 1009.2 |
| 20260902173701 | 51 | 315 | 3.0 | 8.0 | 0.00 | 0.00 | 0.00 | 72 | 1009.3 |
| 20260902173056 | 51 | 331 | 2.0 | 8.0 | 0.00 | 0.00 | 0.00 | 72 | 1009.2 |
| 20260902172555 | 51 | 346 | 2.0 | 9.0 | 0.00 | 0.00 | 0.00 | 73 | 1009.5 |
| 20260902172056 | 50 | 5 | 4.0 | 9.0 | 0.00 | 0.00 | 0.00 | 73 | 1009.4 |
| 20260902171614 | 50 | 340 | 3.0 | 9.0 | 0.00 | 0.00 | 0.00 | 74 | 1009.6 |
| 20260902171053 | 50 | 332 | 3.0 | 10.0 | 0.00 | 0.00 | 0.00 | 74 | 1009.7 |
| 20260902170551 | 50 | 340 | 4.0 | 10.0 | 0.00 | 0.00 | 0.00 | 75 | 1009.8 |
| 20260902170051 | 49 | 5 | 3.0 | 9.0 | 0.00 | 0.00 | 0.00 | 76 | 1009.9 |
| 20260902165549 | 49 | 277 | 4.0 | 9.0 | 0.00 | 0.00 | 0.00 | 76 | 1009.9 |
| 20260902165052 | 49 | 360 | 2.0 | 6.0 | 0.00 | 0.00 | 0.00 | 77 | 1010.1 |
| 20260902164546 | 49 | 325 | 3.0 | 8.0 | 0.00 | 0.00 | 0.00 | 77 | 1010.1 |
| 20260902164046 | 48 | 315 | 2.0 | 8.0 | 0.00 | 0.00 | 0.00 | 78 | 1010.1 |
| 20260902163647 | 48 | 311 | 2.0 | 6.0 | 0.00 | 0.00 | 0.00 | 79 | 1010.2 |
| 20260902163046 | 48 | 339 | 2.0 | 6.0 | 0.00 | 0.00 | 0.00 | 79 | 1010.2 |
| 20260902162545 | 48 | 320 | 2.0 | 7.0 | 0.00 | 0.00 | 0.00 | 80 | 1010.3 |
| 20260902162044 | 47 | 334 | 2.0 | 7.0 | 0.00 | 0.00 | 0.00 | 81 | 1010.3 |
| 20260902161548 | 47 | 298 | 2.0 | 8.0 | 0.00 | 0.00 | 0.00 | 82 | 1010.3 |
| 20260902161041 | 46 | 305 | 3.0 | 8.0 | 0.00 | 0.00 | 0.00 | 83 | 1010.3 |
| 20260902160540 | 46 | 268 | 3.0 | 9.0 | 0.00 | 0.00 | 0.00 | 83 | 1010.2 |
| 20260902160042 | 45 | 271 | 2.0 | 9.0 | 0.00 | 0.00 | 0.00 | 83 | 1010.2 |
| 20260902155538 | 44 | 277 | 2.0 | 6.0 | 0.00 | 0.00 | 0.00 | 83 | 1010.1 |
| 20260902155037 | 44 | 294 | 1.0 | 5.0 | 0.00 | 0.00 | 0.00 | 82 | 1010.1 |
| 20260902154538 | 43 | 306 | 1.0 | 6.0 | 0.00 | 0.00 | 0.00 | 80 | 1010.1 |
| 20260902154037 | 43 | 296 | 0.0 | 4.0 | 0.00 | 0.00 | 0.00 | 78 | 1010.1 |
| 20260902153635 | 43 | 360 | 0.0 | 1.0 | 0.00 | 0.00 | 0.00 | 77 | 1010.2 |
| 20260902153033 | 43 | 360 | 0.0 | 1.0 | 0.00 | 0.00 | 0.00 | 77 | 1010.1 |
| 20260902152532 | 43 | 360 | 0.0 | 0.0 | 0.00 | 0.00 | 0.00 | 77 | 1010.1 |
| 20260902152033 | 43 | 360 | 0.0 | 0.0 | 0.00 | 0.00 | 0.00 | 77 | 1010.1 |
| 20260902151533 | 43 | 360 | 0.0 | 1.0 | 0.00 | 0.00 | 0.00 | 77 | 1010.3 |
| 20260902151034 | 43 | 360 | 0.0 | 0.0 | 0.00 | 0.00 | 0.00 | 77 | 1010.4 |
| 20260902150530 | 43 | 360 | 0.0 | 1.0 | 0.00 | 0.00 | 0.00 | 77 | 1010.4 |
| 20260902150029 | 44 | 360 | 0.0 | 1.0 | 0.00 | 0.00 | 0.00 | 77 | 1010.4 |
| 20260902145528 | 44 | 360 | 0.0 | 1.0 | 0.00 | 0.00 | 0.00 | 76 | 1010.3 |
| 20260902145030 | 44 | 339 | 0.0 | 1.0 | 0.00 | 0.00 | 0.00 | 75 | 1010.2 |
| 20260902144530 | 44 | 339 | 0.0 | 1.0 | 0.00 | 0.00 | 0.00 | 75 | 1010.2 |
| 20260902144025 | 44 | 339 | 0.0 | 0.0 | 0.00 | 0.00 | 0.00 | 74 | 1010.3 |
| 20260902143628 | 44 | 339 | 0.0 | 0.0 | 0.00 | 0.00 | 0.00 | 75 | 1010.4 |
| 20260902143030 | 44 | 339 | 0.0 | 0.0 | 0.00 | 0.00 | 0.00 | 74 | 1010.5 |
| 20260902142526 | 44 | 339 | 0.0 | 1.0 | 0.00 | 0.00 | 0.00 | 74 | 1010.7 |
| 20260902142025 | 44 | 339 | 0.0 | 1.0 | 0.00 | 0.00 | 0.00 | 74 | 1010.8 |
| 20260902141531 | 45 | 339 | 0.0 | 1.0 | 0.00 | 0.00 | 0.00 | 74 | 1010.8 |
| 20260902141024 | 45 | 339 | 0.0 | 1.0 | 0.00 | 0.00 | 0.00 | 73 | 1010.8 |
| 20260902140522 | 45 | 339 | 0.0 | 0.0 | 0.00 | 0.00 | 0.00 | 73 | 1011.0 |
| 20260902140020 | 45 | 339 | 0.0 | 0.0 | 0.00 | 0.00 | 0.00 | 73 | 1011.0 |
| 20260902135520 | 45 | 339 | 0.0 | 0.0 | 0.00 | 0.00 | 0.00 | 73 | 1011.0 |
| 20260902135019 | 46 | 339 | 0.0 | 0.0 | 0.00 | 0.00 | 0.00 | 73 | 1011.1 |
| 20260902134524 | 46 | 339 | 0.0 | 0.0 | 0.00 | 0.00 | 0.00 | 73 | 1011.1 |
| 20260902134017 | 46 | 339 | 0.0 | 0.0 | 0.00 | 0.00 | 0.00 | 73 | 1011.1 |
| 20260902133617 | 46 | 339 | 0.0 | 0.0 | 0.00 | 0.00 | 0.00 | 73 | 1011.1 |
| 20260902133027 | 46 | 339 | 0.0 | 0.0 | 0.00 | 0.00 | 0.00 | 72 | 1011.1 |
| 20260902132519 | 47 | 339 | 0.0 | 0.0 | 0.00 | 0.00 | 0.00 | 72 | 1011.2 |
| 20260902132016 | 47 | 339 | 0.0 | 1.0 | 0.00 | 0.00 | 0.00 | 72 | 1011.2 |
| 20260902131516 | 47 | 339 | 0.0 | 1.0 | 0.00 | 0.00 | 0.00 | 72 | 1011.2 |
| 20260902131015 | 47 | 339 | 0.0 | 1.0 | 0.00 | 0.00 | 0.00 | 71 | 1011.3 |
| 20260902130514 | 48 | 339 | 0.0 | 1.0 | 0.00 | 0.00 | 0.00 | 70 | 1011.3 |
| 20260902130014 | 48 | 339 | 0.0 | 0.0 | 0.00 | 0.00 | 0.00 | 70 | 1011.3 |
| 20260902125513 | 48 | 339 | 0.0 | 0.0 | 0.00 | 0.00 | 0.00 | 69 | 1011.3 |
| 20260902125111 | 48 | 339 | 0.0 | 0.0 | 0.00 | 0.00 | 0.00 | 69 | 1011.4 |
| 20260902124511 | 49 | 339 | 0.0 | 0.0 | 0.00 | 0.00 | 0.00 | 69 | 1011.5 |
| 20260902124009 | 49 | 339 | 0.0 | 1.0 | 0.00 | 0.00 | 0.00 | 68 | 1011.5 |
| 20260902123610 | 49 | 339 | 0.0 | 1.0 | 0.00 | 0.00 | 0.00 | 68 | 1011.6 |
| 20260902123008 | 49 | 339 | 0.0 | 1.0 | 0.00 | 0.00 | 0.00 | 68 | 1011.6 |
| 20260902122508 | 50 | 339 | 0.0 | 1.0 | 0.00 | 0.00 | 0.00 | 67 | 1011.7 |
| 20260902122009 | 50 | 339 | 0.0 | 1.0 | 0.00 | 0.00 | 0.00 | 67 | 1011.7 |
| 20260902121508 | 50 | 339 | 0.0 | 1.0 | 0.00 | 0.00 | 0.00 | 67 | 1011.7 |
| 20260902121006 | 51 | 339 | 0.0 | 1.0 | 0.00 | 0.00 | 0.00 | 66 | 1011.8 |
| 20260902120506 | 51 | 339 | 0.0 | 1.0 | 0.00 | 0.00 | 0.00 | 66 | 1011.9 |
| 20260902120003 | 51 | 339 | 0.0 | 1.0 | 0.00 | 0.00 | 0.00 | 66 | 1011.8 |
| 20260902115507 | 51 | 339 | 0.0 | 1.0 | 0.00 | 0.00 | 0.00 | 65 | 1011.9 |
| 20260902115002 | 52 | 339 | 0.0 | 1.0 | 0.00 | 0.00 | 0.00 | 65 | 1012.0 |
| 20260902114502 | 52 | 339 | 0.0 | 1.0 | 0.00 | 0.00 | 0.00 | 65 | 1012.0 |
| 20260902114003 | 52 | 339 | 0.0 | 1.0 | 0.00 | 0.00 | 0.00 | 65 | 1012.1 |
| 20260902113600 | 52 | 339 | 0.0 | 1.0 | 0.00 | 0.00 | 0.00 | 65 | 1012.0 |
| 20260902113106 | 52 | 339 | 0.0 | 1.0 | 0.00 | 0.00 | 0.00 | 65 | 1012.0 |
| 20260902112558 | 52 | 339 | 0.0 | 4.0 | 0.00 | 0.00 | 0.00 | 65 | 1012.0 |
| 20260902112058 | 53 | 339 | 1.0 | 4.0 | 0.00 | 0.00 | 0.00 | 65 | 1011.9 |
| 20260902111558 | 53 | 334 | 0.0 | 3.0 | 0.00 | 0.00 | 0.00 | 64 | 1011.9 |
| 20260902111058 | 53 | 340 | 1.0 | 3.0 | 0.00 | 0.00 | 0.00 | 64 | 1011.8 |
| 20260902110600 | 53 | 333 | 0.0 | 3.0 | 0.00 | 0.00 | 0.00 | 63 | 1011.8 |
| 20260902110059 | 54 | 294 | 0.0 | 2.0 | 0.00 | 0.00 | 0.00 | 63 | 1011.8 |
| 20260902105559 | 54 | 294 | 0.0 | 2.0 | 0.00 | 0.00 | 0.00 | 63 | 1011.7 |
| 20260902105057 | 54 | 294 | 0.0 | 3.0 | 0.00 | 0.00 | 0.00 | 63 | 1011.7 |
| 20260902104557 | 54 | 288 | 1.0 | 8.0 | 0.00 | 0.00 | 0.00 | 62 | 1011.8 |
| 20260902104058 | 54 | 273 | 3.0 | 8.0 | 0.00 | 0.00 | 0.00 | 62 | 1012.0 |
| 20260902103557 | 55 | 288 | 1.0 | 8.0 | 0.00 | 0.00 | 0.00 | 62 | 1012.1 |
| 20260902103058 | 55 | 292 | 1.0 | 8.0 | 0.00 | 0.00 | 0.00 | 62 | 1012.1 |
| 20260902102558 | 55 | 269 | 5.0 | 9.0 | 0.00 | 0.00 | 0.00 | 61 | 1012.1 |
| 20260902102058 | 55 | 300 | 3.0 | 9.0 | 0.00 | 0.00 | 0.00 | 61 | 1012.1 |
| 20260902101558 | 56 | 284 | 3.0 | 9.0 | 0.00 | 0.00 | 0.00 | 61 | 1012.1 |
| 20260902101058 | 56 | 266 | 4.0 | 9.0 | 0.00 | 0.00 | 0.00 | 61 | 1012.1 |
| 20260902100558 | 56 | 309 | 2.0 | 11.0 | 0.00 | 0.00 | 0.00 | 61 | 1012.2 |
| 20260902100058 | 56 | 300 | 4.0 | 11.0 | 0.00 | 0.00 | 0.00 | 60 | 1012.2 |
| 20260902095557 | 56 | 317 | 5.0 | 11.0 | 0.00 | 0.00 | 0.00 | 60 | 1012.1 |
| 20260902095059 | 56 | 332 | 3.0 | 10.0 | 0.00 | 0.00 | 0.00 | 61 | 1012.1 |
| 20260902094558 | 56 | 284 | 5.0 | 13.0 | 0.00 | 0.00 | 0.00 | 60 | 1012.0 |
| 20260902094057 | 56 | 304 | 8.0 | 13.0 | 0.00 | 0.00 | 0.00 | 61 | 1012.0 |
| 20260902093557 | 56 | 304 | 4.0 | 9.0 | 0.00 | 0.00 | 0.00 | 63 | 1012.0 |
| 20260902093057 | 56 | 295 | 4.0 | 9.0 | 0.00 | 0.00 | 0.00 | 63 | 1012.0 |
| 20260902092557 | 56 | 309 | 3.0 | 9.0 | 0.00 | 0.00 | 0.00 | 64 | 1011.9 |
| 20260902092057 | 57 | 276 | 6.0 | 10.0 | 0.00 | 0.00 | 0.00 | 64 | 1011.8 |
| 20260902091556 | 57 | 288 | 5.0 | 11.0 | 0.00 | 0.00 | 0.00 | 64 | 1011.7 |
| 20260902091059 | 57 | 285 | 5.0 | 11.0 | 0.00 | 0.00 | 0.00 | 64 | 1011.7 |
| 20260902090559 | 57 | 282 | 3.0 | 9.0 | 0.00 | 0.00 | 0.00 | 64 | 1011.6 |
| 20260902090056 | 57 | 290 | 3.0 | 9.0 | 0.00 | 0.00 | 0.00 | 63 | 1011.5 |
| 20260902085556 | 57 | 288 | 2.0 | 7.0 | 0.00 | 0.00 | 0.00 | 62 | 1011.4 |
| 20260902085055 | 57 | 298 | 3.0 | 9.0 | 0.00 | 0.00 | 0.00 | 62 | 1011.3 |
| 20260902084603 | 58 | 336 | 4.0 | 9.0 | 0.00 | 0.00 | 0.00 | 61 | 1011.2 |
| 20260902084056 | 58 | 323 | 4.0 | 10.0 | 0.00 | 0.00 | 0.00 | 61 | 1011.2 |
| 20260902083555 | 58 | 302 | 3.0 | 10.0 | 0.00 | 0.00 | 0.00 | 60 | 1011.1 |
| 20260902083058 | 58 | 288 | 3.0 | 10.0 | 0.00 | 0.00 | 0.00 | 60 | 1011.0 |
| 20260902082556 | 59 | 292 | 3.0 | 9.0 | 0.00 | 0.00 | 0.00 | 60 | 1011.0 |
| 20260902082056 | 59 | 286 | 3.0 | 8.0 | 0.00 | 0.00 | 0.00 | 59 | 1011.0 |
| 20260902081556 | 59 | 294 | 2.0 | 9.0 | 0.00 | 0.00 | 0.00 | 59 | 1011.0 |
| 20260902081056 | 60 | 320 | 3.0 | 9.0 | 0.00 | 0.00 | 0.00 | 58 | 1010.8 |
| 20260902080555 | 60 | 302 | 1.0 | 10.0 | 0.00 | 0.00 | 0.00 | 58 | 1010.9 |
| 20260902080055 | 60 | 310 | 4.0 | 10.0 | 0.00 | 0.00 | 0.00 | 57 | 1011.0 |
| 20260902075554 | 61 | 324 | 2.0 | 8.0 | 0.00 | 0.00 | 0.00 | 57 | 1011.0 |
| 20260902075057 | 61 | 325 | 2.0 | 5.0 | 0.00 | 0.00 | 0.00 | 57 | 1010.9 |
| 20260902074609 | 61 | 350 | 1.0 | 6.0 | 0.00 | 0.00 | 0.00 | 56 | 1010.8 |
| 20260902074054 | 61 | 331 | 1.0 | 8.0 | 0.00 | 0.00 | 0.00 | 56 | 1010.6 |
| 20260902073554 | 62 | 355 | 1.0 | 10.0 | 0.00 | 0.00 | 0.00 | 55 | 1010.5 |
| 20260902073058 | 62 | 321 | 3.0 | 10.0 | 0.00 | 0.00 | 0.00 | 55 | 1010.5 |
| 20260902072559 | 62 | 277 | 2.0 | 8.0 | 0.00 | 0.00 | 0.00 | 54 | 1010.6 |
| 20260902072100 | 62 | 310 | 2.0 | 8.0 | 0.00 | 0.00 | 0.00 | 54 | 1010.6 |
| 20260902071558 | 63 | 331 | 3.0 | 6.0 | 0.00 | 0.00 | 0.00 | 53 | 1010.5 |
| 20260902071057 | 63 | 331 | 1.0 | 6.0 | 0.00 | 0.00 | 0.00 | 53 | 1010.5 |
| 20260902070556 | 63 | 344 | 2.0 | 6.0 | 0.00 | 0.00 | 0.00 | 52 | 1010.6 |
| 20260902070056 | 64 | 340 | 3.0 | 9.0 | 0.00 | 0.00 | 0.00 | 52 | 1010.6 |
| 20260902065555 | 64 | 336 | 5.0 | 10.0 | 0.00 | 0.00 | 0.00 | 51 | 1010.5 |
| 20260902065056 | 64 | 320 | 5.0 | 10.0 | 0.00 | 0.00 | 0.00 | 51 | 1010.6 |
| 20260902064556 | 64 | 302 | 4.0 | 9.0 | 0.00 | 0.00 | 0.00 | 51 | 1010.7 |
| 20260902064055 | 64 | 270 | 4.0 | 12.0 | 0.00 | 0.00 | 0.00 | 51 | 1010.7 |
| 20260902063554 | 64 | 5 | 3.0 | 9.0 | 0.00 | 0.00 | 0.00 | 54 | 1010.7 |
| 20260902063112 | 64 | 355 | 4.0 | 9.0 | 0.00 | 0.00 | 0.00 | 54 | 1010.7 |
| 20260902062552 | 63 | 69 | 1.0 | 3.0 | 0.00 | 0.00 | 0.00 | 58 | 1010.6 |
| 20260902062051 | 63 | 73 | 1.0 | 4.0 | 0.00 | 0.00 | 0.00 | 58 | 1010.7 |
| 20260902061554 | 63 | 42 | 2.0 | 4.0 | 0.00 | 0.00 | 0.00 | 57 | 1010.8 |
| 20260902061053 | 63 | 69 | 1.0 | 6.0 | 0.00 | 0.00 | 0.00 | 57 | 1010.9 |
| 20260902060551 | 63 | 67 | 2.0 | 6.0 | 0.00 | 0.00 | 0.00 | 56 | 1011.0 |
| 20260902060106 | 63 | 355 | 0.0 | 12.0 | 0.00 | 0.00 | 0.00 | 55 | 1011.1 |
| 20260902055550 | 63 | 18 | 5.0 | 12.0 | 0.00 | 0.00 | 0.00 | 54 | 1011.1 |
| 20260902055050 | 64 | 265 | 5.0 | 9.0 | 0.00 | 0.00 | 0.00 | 53 | 1011.1 |
| 20260902054604 | 64 | 315 | 2.0 | 7.0 | 0.00 | 0.00 | 0.00 | 55 | 1011.1 |
| 20260902054048 | 64 | 348 | 2.0 | 6.0 | 0.00 | 0.00 | 0.00 | 56 | 1011.1 |
| 20260902053547 | 64 | 74 | 3.0 | 7.0 | 0.00 | 0.00 | 0.00 | 55 | 1011.2 |
| 20260902053048 | 64 | 29 | 3.0 | 7.0 | 0.00 | 0.00 | 0.00 | 55 | 1011.2 |
| 20260902052551 | 64 | 333 | 2.0 | 7.0 | 0.00 | 0.00 | 0.00 | 55 | 1011.3 |
| 20260902052048 | 64 | 13 | 2.0 | 5.0 | 0.00 | 0.00 | 0.00 | 55 | 1011.4 |
| 20260902051556 | 64 | 300 | 1.0 | 3.0 | 0.00 | 0.00 | 0.00 | 55 | 1011.4 |
| 20260902051048 | 64 | 28 | 0.0 | 4.0 | 0.00 | 0.00 | 0.00 | 56 | 1011.5 |
| 20260902050547 | 64 | 49 | 2.0 | 9.0 | 0.00 | 0.00 | 0.00 | 55 | 1011.4 |
| 20260902050048 | 64 | 324 | 4.0 | 10.0 | 0.00 | 0.00 | 0.00 | 54 | 1011.4 |
| 20260902045548 | 64 | 259 | 6.0 | 10.0 | 0.00 | 0.00 | 0.00 | 53 | 1011.3 |
| 20260902045047 | 65 | 305 | 4.0 | 9.0 | 0.00 | 0.00 | 0.00 | 53 | 1011.4 |
| 20260902044546 | 65 | 294 | 2.0 | 8.0 | 0.00 | 0.00 | 0.00 | 52 | 1011.4 |
| 20260902044045 | 65 | 277 | 2.0 | 7.0 | 0.00 | 0.00 | 0.00 | 53 | 1011.6 |
| 20260902043544 | 65 | 151 | 2.0 | 5.0 | 0.00 | 0.00 | 0.00 | 53 | 1011.5 |
| 20260902043105 | 65 | 254 | 2.0 | 5.0 | 0.00 | 0.00 | 0.00 | 53 | 1011.5 |
| 20260902042547 | 65 | 245 | 2.0 | 9.0 | 0.00 | 0.00 | 0.00 | 53 | 1011.7 |
| 20260902042044 | 65 | 360 | 4.0 | 9.0 | 0.00 | 0.00 | 0.00 | 53 | 1011.7 |
| 20260902041600 | 65 | 176 | 1.0 | 7.0 | 0.00 | 0.00 | 0.00 | 52 | 1011.7 |
| 20260902041043 | 66 | 252 | 2.0 | 7.0 | 0.00 | 0.00 | 0.00 | 53 | 1011.7 |
| 20260902040543 | 66 | 279 | 1.0 | 4.0 | 0.00 | 0.00 | 0.00 | 52 | 1011.8 |
| 20260902040043 | 66 | 257 | 2.0 | 8.0 | 0.00 | 0.00 | 0.00 | 52 | 1011.7 |
| 20260902035541 | 65 | 243 | 3.0 | 9.0 | 0.00 | 0.00 | 0.00 | 53 | 1011.8 |
| 20260902035042 | 65 | 190 | 2.0 | 8.0 | 0.00 | 0.00 | 0.00 | 53 | 1011.9 |
| 20260902034549 | 65 | 235 | 2.0 | 8.0 | 0.00 | 0.00 | 0.00 | 53 | 1011.8 |
| 20260902034039 | 65 | 217 | 1.0 | 9.0 | 0.00 | 0.00 | 0.00 | 54 | 1011.9 |
| 20260902033539 | 65 | 285 | 4.0 | 9.0 | 0.00 | 0.00 | 0.00 | 54 | 1012.1 |
| 20260902033041 | 65 | 247 | 3.0 | 9.0 | 0.00 | 0.00 | 0.00 | 54 | 1012.1 |
| 20260902032540 | 65 | 214 | 3.0 | 8.0 | 0.00 | 0.00 | 0.00 | 53 | 1012.2 |
| 20260902032038 | 65 | 208 | 3.0 | 9.0 | 0.00 | 0.00 | 0.00 | 54 | 1012.2 |
| 20260902031541 | 64 | 256 | 4.0 | 9.0 | 0.00 | 0.00 | 0.00 | 53 | 1012.3 |
| 20260902031039 | 64 | 144 | 2.0 | 9.0 | 0.00 | 0.00 | 0.00 | 55 | 1012.3 |
| 20260902030537 | 64 | 207 | 2.0 | 9.0 | 0.00 | 0.00 | 0.00 | 55 | 1012.2 |
| 20260902030036 | 64 | 194 | 4.0 | 8.0 | 0.00 | 0.00 | 0.00 | 55 | 1012.3 |
| 20260902025535 | 63 | 236 | 4.0 | 11.0 | 0.00 | 0.00 | 0.00 | 55 | 1012.5 |
| 20260902025035 | 63 | 247 | 4.0 | 11.0 | 0.00 | 0.00 | 0.00 | 55 | 1012.7 |
| 20260902024534 | 63 | 252 | 3.0 | 12.0 | 0.00 | 0.00 | 0.00 | 56 | 1012.8 |
| 20260902024034 | 63 | 275 | 3.0 | 12.0 | 0.00 | 0.00 | 0.00 | 56 | 1012.9 |
| 20260902023533 | 63 | 206 | 4.0 | 10.0 | 0.00 | 0.00 | 0.00 | 56 | 1013.1 |
| 20260902023036 | 63 | 240 | 5.0 | 10.0 | 0.00 | 0.00 | 0.00 | 56 | 1013.1 |
| 20260902022534 | 62 | 240 | 3.0 | 11.0 | 0.00 | 0.00 | 0.00 | 57 | 1013.2 |
| 20260902022037 | 62 | 209 | 3.0 | 11.0 | 0.00 | 0.00 | 0.00 | 57 | 1013.3 |
| 20260902021537 | 62 | 196 | 5.0 | 11.0 | 0.00 | 0.00 | 0.00 | 56 | 1013.3 |
| 20260902021034 | 63 | 256 | 4.0 | 12.0 | 0.00 | 0.00 | 0.00 | 56 | 1013.5 |
| 20260902020534 | 62 | 271 | 4.0 | 12.0 | 0.00 | 0.00 | 0.00 | 58 | 1013.5 |
| 20260902020034 | 62 | 288 | 3.0 | 11.0 | 0.00 | 0.01 | 0.00 | 58 | 1013.6 |
| 20260902015530 | 62 | 250 | 3.0 | 11.0 | 0.00 | 0.01 | 0.00 | 58 | 1013.6 |
| 20260902015029 | 61 | 257 | 4.0 | 11.0 | 0.00 | 0.01 | 0.00 | 57 | 1013.7 |
| 20260902014533 | 61 | 298 | 3.0 | 11.0 | 0.00 | 0.01 | 0.00 | 59 | 1013.9 |
| 20260902014028 | 61 | 261 | 5.0 | 12.0 | 0.00 | 0.01 | 0.00 | 60 | 1014.0 |
| 20260902013527 | 60 | 298 | 4.0 | 10.0 | 0.00 | 0.01 | 0.00 | 60 | 1014.2 |
| 20260902013026 | 60 | 303 | 4.0 | 10.0 | 0.00 | 0.01 | 0.00 | 61 | 1014.2 |
| 20260902012528 | 59 | 259 | 3.0 | 8.0 | 0.00 | 0.01 | 0.00 | 61 | 1014.2 |
| 20260902012024 | 59 | 259 | 2.0 | 10.0 | 0.00 | 0.01 | 0.00 | 62 | 1014.2 |
| 20260902011523 | 59 | 306 | 4.0 | 10.0 | 0.00 | 0.01 | 0.00 | 62 | 1014.4 |
| 20260902011026 | 59 | 256 | 3.0 | 10.0 | 0.00 | 0.01 | 0.00 | 61 | 1014.4 |
| 20260902010523 | 59 | 277 | 3.0 | 9.0 | 0.00 | 0.01 | 0.00 | 61 | 1014.4 |
| 20260902010025 | 59 | 267 | 2.0 | 9.0 | 0.00 | 0.01 | 0.00 | 61 | 1014.5 |
| 20260902005525 | 59 | 272 | 4.0 | 9.0 | 0.00 | 0.01 | 0.00 | 61 | 1014.6 |
| 20260902005025 | 59 | 282 | 2.0 | 8.0 | 0.00 | 0.01 | 0.00 | 60 | 1014.7 |
| 20260902004529 | 59 | 209 | 4.0 | 10.0 | 0.00 | 0.01 | 0.00 | 59 | 1014.7 |
| 20260902004022 | 60 | 240 | 5.0 | 11.0 | 0.00 | 0.01 | 0.00 | 58 | 1014.6 |
| 20260902003524 | 60 | 215 | 4.0 | 11.0 | 0.00 | 0.01 | 0.00 | 60 | 1014.6 |
| 20260902003057 | 60 | 276 | 5.0 | 11.0 | 0.00 | 0.01 | 0.00 | 60 | 1014.6 |
| 20260902002519 | 60 | 252 | 3.0 | 10.0 | 0.00 | 0.01 | 0.00 | 61 | 1014.6 |
| 20260902002019 | 59 | 279 | 5.0 | 14.0 | 0.00 | 0.01 | 0.00 | 61 | 1014.7 |
| 20260902001521 | 59 | 237 | 2.0 | 14.0 | 0.00 | 0.01 | 0.00 | 62 | 1014.8 |
| 20260902001019 | 59 | 267 | 4.0 | 10.0 | 0.00 | 0.01 | 0.00 | 63 | 1014.9 |
| 20260902000518 | 59 | 238 | 3.0 | 10.0 | 0.00 | 0.01 | 0.00 | 64 | 1015.0 |
| 20260902000030 | 59 | 238 | 4.0 | 10.0 | 0.00 | 0.01 | 0.00 | 66 | 1014.9 |
| 20260901235517 | 58 | 272 | 4.0 | 10.0 | 0.00 | 0.01 | 0.00 | 67 | 1015.1 |
| 20260901235016 | 58 | 298 | 4.0 | 9.0 | 0.00 | 0.01 | 0.00 | 67 | 1015.1 |
| 20260901234515 | 58 | 252 | 5.0 | 9.0 | 0.00 | 0.01 | 0.00 | 68 | 1015.1 |
| 20260901234015 | 57 | 304 | 2.0 | 7.0 | 0.00 | 0.01 | 0.00 | 69 | 1015.2 |
| 20260901233515 | 57 | 223 | 1.0 | 8.0 | 0.00 | 0.01 | 0.00 | 70 | 1015.4 |
| 20260901233016 | 57 | 278 | 2.0 | 8.0 | 0.00 | 0.01 | 0.00 | 70 | 1015.4 |
| 20260901232518 | 57 | 244 | 3.0 | 8.0 | 0.00 | 0.01 | 0.00 | 70 | 1015.4 |
| 20260901232015 | 56 | 276 | 2.0 | 9.0 | 0.00 | 0.01 | 0.00 | 71 | 1015.3 |
| 20260901231513 | 56 | 220 | 3.0 | 10.0 | 0.00 | 0.01 | 0.00 | 72 | 1015.3 |
| 20260901231013 | 56 | 279 | 3.0 | 10.0 | 0.00 | 0.01 | 0.00 | 72 | 1015.3 |
| 20260901230513 | 55 | 240 | 4.0 | 10.0 | 0.00 | 0.01 | 0.00 | 73 | 1015.2 |
| 20260901230016 | 55 | 269 | 3.0 | 9.0 | 0.00 | 0.01 | 0.00 | 73 | 1015.3 |
| 20260901225513 | 55 | 257 | 3.0 | 10.0 | 0.00 | 0.01 | 0.00 | 75 | 1015.4 |
| 20260901225012 | 54 | 225 | 6.0 | 10.0 | 0.00 | 0.01 | 0.00 | 77 | 1015.4 |
| 20260901224512 | 54 | 243 | 3.0 | 9.0 | 0.00 | 0.01 | 0.00 | 78 | 1015.5 |
| 20260901224010 | 54 | 234 | 1.0 | 9.0 | 0.00 | 0.01 | 0.00 | 79 | 1015.4 |
| 20260901223509 | 53 | 260 | 1.0 | 8.0 | 0.00 | 0.01 | 0.00 | 80 | 1015.4 |
| 20260901223009 | 53 | 232 | 2.0 | 8.0 | 0.00 | 0.01 | 0.00 | 80 | 1015.4 |
| 20260901222511 | 53 | 279 | 3.0 | 8.0 | 0.00 | 0.01 | 0.00 | 81 | 1015.4 |
| 20260901222008 | 53 | 189 | 1.0 | 5.0 | 0.00 | 0.01 | 0.00 | 81 | 1015.4 |
| 20260901221509 | 53 | 221 | 1.0 | 4.0 | 0.00 | 0.01 | 0.00 | 81 | 1015.3 |
| 20260901221005 | 53 | 229 | 1.0 | 4.0 | 0.00 | 0.01 | 0.00 | 82 | 1015.3 |
| 20260901220504 | 53 | 267 | 2.0 | 4.0 | 0.00 | 0.01 | 0.00 | 82 | 1015.3 |
| 20260901220008 | 53 | 219 | 0.0 | 4.0 | 0.00 | 0.01 | 0.00 | 82 | 1015.2 |
| 20260901215502 | 53 | 247 | 0.0 | 5.0 | 0.00 | 0.01 | 0.00 | 83 | 1015.1 |
| 20260901215001 | 53 | 212 | 1.0 | 5.0 | 0.00 | 0.01 | 0.00 | 83 | 1015.1 |
| 20260901214559 | 53 | 239 | 1.0 | 4.0 | 0.00 | 0.01 | 0.00 | 84 | 1015.0 |
| 20260901214059 | 52 | 256 | 2.0 | 4.0 | 0.00 | 0.01 | 0.00 | 84 | 1014.9 |
| 20260901213602 | 53 | 227 | 0.0 | 6.0 | 0.00 | 0.01 | 0.00 | 84 | 1014.8 |
| 20260901213001 | 53 | 227 | 0.0 | 6.0 | 0.00 | 0.01 | 0.00 | 84 | 1014.7 |